Regional Weather Roundup
Issued by NWS

Home | Current Version | Previous Version | Graphics & Text | Print | Product List | Glossary On
Versions: 1 2 3 4 5 6 7 8 9 10 11 12 13 14 15 16 17 18 19 20 21 22 23 24 25 26 27 28 29 30 31 32 33 34 35 36 37 38 39 40 41 42 43 44 45 46 47 48 49 50
000
ASUS43 KOAX 200902
RWRNE

WEATHER ROUNDUP FOR NEBRASKA
NATIONAL WEATHER SERVICE OMAHA NE
300 AM CST SAT JAN 20 2018

NOTES: SATELLITE DATA IS BEING USED TO AUGMENT CLOUD COVER ABOVE
       12000 FEET.
       "FAIR" INDICATES FEW OR NO CLOUDS BELOW 12,000 FEET WITH NO
       SIGNIFICANT WEATHER AND/OR OBSTRUCTIONS TO VISIBILITY.


NEZ001>004-019>022-054>056-201000-
NEBRASKA PANHANDLE

CITY           SKY/WX    TMP DP  RH WIND       PRES   REMARKS
SCOTTSBLUFF    CLOUDY    29  26  89 E6        29.75R WCI  23
ALLIANCE       MOCLDY    28  28 100 CALM      29.74S
CHADRON        MOCLDY    24  23  96 CALM      29.78R
GORDON         FAIR      25  23  91 CALM      29.77S
KIMBALL        MOCLDY    34  22  61 SE5       29.74S WCI  30
SIDNEY         CLOUDY    26  23  88 SE5       29.74F WCI  20
$$

NEZ057>060-069>072-079>082-201000-
SOUTHWEST NEBRASKA

CITY           SKY/WX    TMP DP  RH WIND       PRES   REMARKS
NORTH PLATTE   CLOUDY    33  29  85 CALM      29.76R
IMPERIAL       MOCLDY    30  28  92 NW3       29.75R
LEXINGTON      CLEAR     30  28  91 CALM      29.76R
MCCOOK         MOCLDY    32  28  85 CALM      29.74R
OGALLALA       CLOUDY    30  29  93 CALM      29.75S
$$

NEZ005>010-023>029-035>040-094-201000-
NORTH CENTRAL NEBRASKA

CITY           SKY/WX    TMP DP  RH WIND       PRES   REMARKS
VALENTINE      CLEAR     28  26  92 NW5       29.80S WCI  23
AINSWORTH      CLEAR     29  28  98 NW6       29.80R WCI  23
BROKEN BOW     MOCLDY    36  30  79 N5        29.76R WCI  32
O`NEILL        MOCLDY    30  29  97 N8        29.80R WCI  22
ORD            CLOUDY    30  29  96 NW6       29.77S WCI  24
THEDFORD       MOCLDY    30  29  96 W3        29.79R
$$

NEZ041-046>049-061>064-073>077-083>087-201000-
SOUTH CENTRAL NEBRASKA

CITY           SKY/WX    TMP DP  RH WIND       PRES   REMARKS
GRAND ISLAND   CLOUDY    29  28  96 N10       29.78R WCI  20
AURORA         CLOUDY    29  28  96 N8        29.77R WCI  21
HASTINGS       CLOUDY    29  27  92 N6        29.77R WCI  23
HEBRON         CLOUDY    26  23  90 CALM      29.77S
HOLDREGE       CLOUDY    29  28  96 NE7       29.75R WCI  22
KEARNEY        CLOUDY    31  28  89 N9        29.77R WCI  23
YORK           CLOUDY    25  25 100 N9        29.78R WCI  15
$$

NEZ011>018-030>034-042>045-201000-
NORTHEAST NEBRASKA

CITY           SKY/WX    TMP DP  RH WIND       PRES   REMARKS
NORFOLK        PTCLDY    31  29  92 NW3       29.79R
ALBION         PTCLDY    31  29  93 N5        29.79S WCI  26
BLAIR          CLOUDY    34  28  80 CALM      29.77S
COLUMBUS       CLOUDY    24  21  88 CALM      29.80R
FREMONT        PTCLDY    28  25  90 CALM      29.80R
TEKAMAH        CLOUDY    25  23  92 W3        29.80R
WAYNE          MOCLDY    26  25  96 CALM      29.81R
$$

NEZ050>053-065>068-078-088>093-201000-
SOUTHEAST NEBRASKA

CITY           SKY/WX    TMP DP  RH WIND       PRES   REMARKS
LINCOLN        CLOUDY    25  22  88 N8        29.79S WCI  16
OMAHA EPPLEY   CLOUDY    29  27  92 CALM      29.80R
BEATRICE       CLOUDY    31  27  83 CALM      29.78S
FALLS CITY     PTCLDY    33  25  72 S3        29.82R
NEBRASKA CITY  MOCLDY    32  28  85 CALM      29.80R
PLATTSMOUTH    PTCLDY    33  28  83 SE3       29.79R
$$

NEZ044-045-051>053-067-201000-
OMAHA AREA

CITY           SKY/WX    TMP DP  RH WIND       PRES   REMARKS
OMAHA EPPLEY   CLOUDY    29  27  92 CALM      29.80R
BLAIR          CLOUDY    34  28  80 CALM      29.77S
FREMONT        PTCLDY    28  25  90 CALM      29.80R
MILLARD        CLOUDY    28  25  88 CALM      29.80R
OFFUTT AFB     CLOUDY    24  22  91 CALM      29.80R
PLATTSMOUTH    PTCLDY    33  28  83 SE3       29.79R
WAHOO          FAIR      29  26  90 N3        29.79S
$$




USA.gov is the U.S. government's official web portal to all federal, state and local government web resources and services.